Regional Weather Roundup
Issued by NWS

Home | Current Version | Previous Version | Graphics & Text | Print | Product List | Glossary On
Versions: 1 2 3 4 5 6 7 8 9 10 11 12 13 14 15 16 17 18 19 20 21 22 23 24 25 26 27 28 29 30 31 32 33 34 35 36 37 38 39 40 41 42 43 44 45 46 47 48 49 50
000
ASUS43 KDTX 061610
RWRMI
MICHIGAN HOURLY REGIONAL WEATHER ROUNDUP
NATIONAL WEATHER SERVICE DETROIT/PONTIAC MI
1100 AM EST FRI MAR 06 2015

NOTE: "FAIR" INDICATES FEW OR NO CLOUDS BELOW 12,000 FEET WITH NO
SIGNIFICANT WEATHER AND/OR OBSTRUCTION TO VISIBILITY.

MIZ047>049-052>055-059>063-066>070-074>076-081>083-061700-
SOUTHEAST LOWER MICHIGAN

CITY           SKY/WX    TMP DP  RH WIND       PRES   REMARKS
ADRIAN         SUNNY     12   2  64 SW12      30.47F WCI  -2
ALMA           MOSUNNY   13   6  74 SW13G18   30.37F WCI  -1
ANN ARBOR      SUNNY     14   4  64 S13       30.43F WCI   0
BAD AXE        SUNNY     16   7  67 SW13G21   30.36F WCI   2
CARO           SUNNY     17   2  53 SW16G24   30.37F WCI   1
DETROIT CITY   SUNNY     19   4  51 SW17      30.45F WCI   4
DETROIT        PTSUNNY   16   7  67 S16       30.47F WCI   1
FLINT          SUNNY     17   1  49 SW16      30.39F WCI   2
GROSSE ILE       N/A     16   9  73 S13       30.46F WCI   2
HILLSDALE      MOSUNNY   13   1  57 SW8       30.41S WCI   2
HOWELL         SUNNY     16  -1  47 SW12G20   30.38F WCI   3

CITY           SKY/WX    TMP DP  RH WIND       PRES   REMARKS
JACKSON        SUNNY     14  -2  49 SW18      30.40F WCI  -3
LAMBERTVILLE   SUNNY     19   7  58 S13       30.48F WCI   7
LANSING        MOSUNNY   14   1  56 SW15      30.40F WCI  -1
LAPEER         FAIR      18   2  50 W15G23    30.38F WCI   3
MASON          SUNNY     15   0  53 SW7       30.40F WCI   5
MONROE         SUNNY     18   7  62 S14       30.46F WCI   4
MT. CLEMENS    PTSUNNY   19   5  53 S18       30.42F WCI   4
PONTIAC        PTSUNNY   16   2  54 SW21G26   30.39F WCI  -1
PORT HOPE        N/A     15   5  64 SW14G21   30.35F WCI   0
PORT HURON     SUNNY     16   7  67 S17       30.43F WCI   0
TRI CITIES     FAIR      17   6  62 SW17      30.37F WCI   1
TROY           SUNNY     20   4  50 SW13G22   30.45F WCI   7
SAGINAW HB     SUNNY     16   5  62 SW16G23   30.37F WCI   0
$$
MIZ043>046-050>051-056>058-064>065-071>073-077>080-061700-
SOUTHWEST LOWER MICHIGAN

CITY           SKY/WX    TMP DP  RH WIND       PRES   REMARKS
BATTLE CREEK   MOSUNNY   12   0  58 SW16      30.40F WCI  -5
BENTON HARBOR  SUNNY     11   1  64 S14G20    30.42F WCI  -5
BIG RAPIDS     MOSUNNY   19  10  69 SW16      30.28F WCI   4
COLDWATER      MOSUNNY   12   1  60 SW9       30.43F WCI   0
FREMONT        LGT SNOW  18  11  75 S14       30.32F WCI   4
HOLLAND        SUNNY     15   6  67 S14       30.39F WCI   0
GRAND RAPIDS   PTSUNNY   13   4  67 SW16      30.38F WCI  -3
IONIA          FAIR      15   7  70 SW13      30.37F WCI   1
KALAMAZOO      MOSUNNY   13   1  59 SW13      30.41F WCI  -2
LUDINGTON      PTSUNNY   22  13  69 SW20G26   30.29F HAZE    WCI   7
MARSHALL       MOSUNNY   12   0  58 SW13G20   30.41S WCI  -3
MOUNT PLEASANT MOSUNNY   17   8  67 S13G20    30.33F WCI   4
MUSKEGON       PTSUNNY   17  10  74 S15G24    30.36F WCI   2
SOUTH HAVEN    SUNNY     15   1  51 S10       30.40F WCI   3
$$
MIZ016>042-061700-
NORTHERN LOWER MICHIGAN

CITY           SKY/WX    TMP DP  RH WIND       PRES   REMARKS
ALPENA         SUNNY     19   5  54 SW16      30.23F WCI   4
BEAVER ISLAND  SUNNY     19  10  67 SW17G26   30.15F HAZE    WCI   4
BELLAIRE       MOSUNNY   21   9  58 S15G22    30.23F WCI   8
CADILLAC       MOSUNNY   16   8  70 SW15      30.21F WCI   1
CHARLEVOIX     MOSUNNY   19   9  64 S12G20    30.22F WCI   7
FRANKFORT      MOSUNNY   23  14  70 SW12G24   30.24F WCI  11
GAYLORD        SUNNY     17   5  59 SW22G30   30.16F WCI   0
GRAYLING       SUNNY     18   7  60 SW8       30.21F WCI   8
HARBOR SPRINGS FAIR      19   8  64 SW14G22   30.19F WCI   5
HOUGHTON LAKE  MOSUNNY   16   6  65 SW15      30.25F WCI   1
MANISTEE       SUNNY     21   9  58 SW16G24   30.27F WCI   7
OSCODA         SUNNY     15   6  69 SW20G26   30.29F WCI  -2
PELLSTON       MOSUNNY   18   7  62 SW12G22   30.17F WCI   5
ROGERS CITY    SUNNY     19   8  60 SW14G21   30.20F WCI   6
TRAVERSE CITY  PTSUNNY   21   8  57 SW10G22   30.21F WCI  10
$$
MIZ007>008-015-061700-
EASTERN UPPER MICHIGAN

CITY           SKY/WX    TMP DP  RH WIND       PRES   REMARKS
KINROSS        MOSUNNY   18   9  68 SW10G21   30.13F WCI   6
MACKINAC ISLAN MOSUNNY   18   8  62 SW13G18   30.15F WCI   5
NEWBERRY         N/A     17   7  64 SW24G33   30.08F HAZE    WCI  -2
S. S. MARIE    MOSUNNY   14   4  64 S10       30.12F WCI   1
MUNISING         N/A     19   1  45 S14G26    30.02F WCI   6
$$
MIZ004>006-011>014-085-061700-
CENTRAL UPPER MICHIGAN

CITY           SKY/WX    TMP DP  RH WIND       PRES   REMARKS
MANISTIQUE     MOSUNNY   16   6  64 SW16      30.12F WCI   0
ESCANABA       PTSUNNY   12   1  62 S14       30.12F WCI  -3
MENOMINEE      MOSUNNY   14   1  57 SW12G20   30.15F WCI   0
SAWYER-GWINN   CLOUDY    16   1  53 SW23G30   29.98F WCI  -2
$$
MIZ001>003-009>011-084-061700-
WESTERN UPPER MICHIGAN

CITY           SKY/WX    TMP DP  RH WIND       PRES   REMARKS
IRON MOUNTAIN  PTSUNNY   21   3  45 SW14      30.01F WCI   8
HOUGHTON       CLOUDY    20   5  52 W18G28    29.90F WCI   5
COPPER HARBOR    N/A     23   5  46 VRB7G17   29.92F WCI  15
IRONWOOD       CLOUDY    18   5  57 SW13      29.94F WCI   4
$$

ABBREVIATIONS USED IN REMARKS
   TC - TEMPERATURE IN CELSIUS
  WCI - WIND CHILL INDEX
   HX - HEAT INDEX
  VSB - VISIBILITY



USA.gov is the U.S. government's official web portal to all federal, state and local government web resources and services.